Location: *
(28.3744°N, 81.5492°W)
Time: 03:32:26
(UTC+00:00)

COSMOS 2455 - Pass Details

Date: 15 June 2025
Orbit: 899 x 909 km, 67.1° (Epoch: 11 July)

Event Time Altitude Azimuth Distance (km) Brightness Sun altitude
Rises 02:51:11 0° 341° (NNW) 3,538 7.0 -26.2°
Reaches altitude 10° 02:53:44 10° 345° (NNW) 2,594 6.1 -26.5°
Maximum altitude 02:59:40 59° 64° (ENE) 1,042 3.0 -27.3°
Enters shadow 02:59:51 59° 72° (ENE) 1,045 3.0 -27.4°
